TimeEDT,TemperatureF,Dew PointF,Humidity,Sea Level PressureIn,VisibilityMPH,Wind Direction,Wind SpeedMPH,Gust SpeedMPH,PrecipitationIn,Events,Conditions,WindDirDegrees,DateUTC
12:06 AM,24.8,17.6,74,30.12,3.0,NW,13.8,19.6,0.00,Snow,Light Snow,310,2013-03-14 04:06:00
12:51 AM,24.1,16.0,71,30.20,10.0,West,9.2,-,0.00,,Overcast,260,2013-03-14 04:51:00
1:05 AM,24.8,17.6,74,30.12,2.0,West,9.2,18.4,0.00,Snow,Light Snow,280,2013-03-14 05:05:00
1:08 AM,24.8,17.6,74,30.12,3.0,WNW,10.4,-,0.00,Snow,Light Snow,300,2013-03-14 05:08:00
1:51 AM,24.1,16.0,71,30.21,4.0,West,11.5,18.4,0.00,Snow,Light Snow,270,2013-03-14 05:51:00
2:04 AM,23.0,15.8,74,30.13,4.0,WNW,12.7,20.7,0.00,Snow,Light Snow,300,2013-03-14 06:04:00
2:51 AM,23.0,16.0,74,30.22,3.0,West,11.5,-,0.00,Snow,Light Snow,270,2013-03-14 06:51:00
2:57 AM,23.0,15.8,74,30.14,2.5,WNW,9.2,18.4,0.00,Snow,Light Snow,290,2013-03-14 06:57:00
3:04 AM,23.0,15.8,74,30.14,3.0,NW,8.1,-,0.00,Snow,Light Snow,320,2013-03-14 07:04:00
3:24 AM,23.0,15.8,74,30.14,7.0,WNW,8.1,-,0.00,Snow,Light Snow,290,2013-03-14 07:24:00
3:51 AM,23.0,15.1,72,30.22,4.0,WNW,6.9,-,0.00,Snow,Light Snow,290,2013-03-14 07:51:00
4:02 AM,23.0,15.8,74,30.13,3.0,Variable,4.6,-,0.00,Snow,Light Snow,0,2013-03-14 08:02:00
4:34 AM,21.2,15.8,80,30.14,4.0,WNW,11.5,16.1,0.00,Snow,Light Snow,290,2013-03-14 08:34:00
4:51 AM,23.0,12.9,65,30.23,9.0,Variable,5.8,17.3,0.00,Snow,Light Snow,0,2013-03-14 08:51:00
5:40 AM,21.2,14.0,74,30.15,7.0,West,8.1,-,N/A,Snow,Light Snow,270,2013-03-14 09:40:00
5:51 AM,21.9,15.1,75,30.25,3.0,West,9.2,-,0.00,Snow,Light Snow,260,2013-03-14 09:51:00
6:17 AM,21.2,12.2,68,30.16,8.0,WNW,6.9,-,0.00,Snow,Light Snow,290,2013-03-14 10:17:00
6:35 AM,21.2,14.0,74,30.17,4.0,NW,5.8,-,0.00,Snow,Light Snow,310,2013-03-14 10:35:00
6:51 AM,21.9,15.1,75,30.27,3.0,WNW,6.9,16.1,0.00,Snow,Light Snow,290,2013-03-14 10:51:00
7:07 AM,21.2,15.8,80,30.17,2.5,SW,4.6,-,0.00,Snow,Light Snow,220,2013-03-14 11:07:00
7:14 AM,21.2,15.8,80,30.17,3.0,WSW,6.9,-,0.00,Snow,Light Snow,240,2013-03-14 11:14:00
7:51 AM,21.9,12.9,68,30.27,6.0,SW,6.9,-,0.00,Snow,Light Snow,230,2013-03-14 11:51:00
8:01 AM,21.2,12.2,68,30.18,6.0,SW,9.2,-,0.00,Snow,Light Snow,230,2013-03-14 12:01:00
8:51 AM,21.9,12.0,66,30.31,6.0,Variable,5.8,-,0.00,Snow,Light Snow,0,2013-03-14 12:51:00
9:47 AM,21.2,12.2,68,30.22,6.0,NW,6.9,-,0.00,Snow,Light Snow,310,2013-03-14 13:47:00
9:51 AM,23.0,12.9,65,30.32,7.0,WNW,4.6,-,0.00,Snow,Light Snow,290,2013-03-14 13:51:00
10:51 AM,25.0,12.0,58,30.30,10.0,WSW,5.8,-,0.00,,Partly Cloudy,250,2013-03-14 14:51:00
11:51 AM,27.0,14.0,58,30.28,10.0,West,11.5,-,N/A,,Scattered Clouds,270,2013-03-14 15:51:00
12:51 PM,28.9,16.0,58,30.28,10.0,West,13.8,23.0,N/A,,Mostly Cloudy,260,2013-03-14 16:51:00
1:51 PM,30.9,16.0,54,30.25,10.0,West,11.5,20.7,N/A,,Mostly Cloudy,280,2013-03-14 17:51:00
2:51 PM,35.1,18.0,50,30.21,10.0,West,13.8,23.0,N/A,,Mostly Cloudy,270,2013-03-14 18:51:00
3:51 PM,36.0,18.0,48,30.19,10.0,WNW,15.0,23.0,N/A,,Mostly Cloudy,290,2013-03-14 19:51:00
4:51 PM,37.0,15.1,41,30.18,10.0,West,12.7,19.6,N/A,,Partly Cloudy,280,2013-03-14 20:51:00
5:51 PM,37.0,14.0,39,30.18,10.0,WNW,15.0,20.7,N/A,,Partly Cloudy,300,2013-03-14 21:51:00
6:51 PM,36.0,12.9,39,30.19,10.0,NW,8.1,18.4,N/A,,Clear,310,2013-03-14 22:51:00
7:51 PM,34.0,12.0,40,30.20,10.0,West,8.1,-,N/A,,Clear,270,2013-03-14 23:51:00
8:51 PM,33.1,12.0,42,30.20,10.0,Variable,3.5,-,N/A,,Clear,0,2013-03-15 00:51:00
9:51 PM,32.0,12.0,44,30.20,10.0,WSW,3.5,-,N/A,,Clear,240,2013-03-15 01:51:00
10:51 PM,32.0,12.0,44,30.21,10.0,WNW,6.9,-,N/A,,Clear,290,2013-03-15 02:51:00
11:51 PM,32.0,12.0,44,30.21,10.0,West,3.5,-,N/A,,Clear,280,2013-03-15 03:51:00